| time (UTC) | temp F | wind direction | speed MPH | gust MPH | rain 1hr in | rain 24hr in | rain mn in | humidity % | barometer mb |
| 20260506204616 | 57 | 297 | 8.0 | 15.0 | 0.00 | 0.00 | 0.00 | 81 | 1009.0 |
| 20260506204132 | 57 | 279 | 4.0 | 12.0 | 0.00 | 0.00 | 0.00 | 81 | 1008.9 |
| 20260506203638 | 57 | 334 | 6.0 | 14.0 | 0.00 | 0.00 | 0.00 | 81 | 1008.8 |
| 20260506203124 | 57 | 263 | 9.0 | 14.0 | 0.00 | 0.00 | 0.00 | 80 | 1008.7 |
| 20260506202619 | 58 | 276 | 7.0 | 15.0 | 0.00 | 0.00 | 0.00 | 81 | 1008.7 |
| 20260506202132 | 58 | 257 | 8.0 | 15.0 | 0.00 | 0.00 | 0.00 | 80 | 1008.7 |
| 20260506201640 | 58 | 257 | 9.0 | 15.0 | 0.00 | 0.00 | 0.00 | 80 | 1008.8 |
| 20260506201134 | 59 | 245 | 10.0 | 15.0 | 0.00 | 0.00 | 0.00 | 81 | 1008.8 |
| 20260506200636 | 59 | 253 | 10.0 | 14.0 | 0.00 | 0.00 | 0.00 | 80 | 1008.7 |
| 20260506200151 | 59 | 250 | 8.0 | 14.0 | 0.00 | 0.00 | 0.00 | 81 | 1008.7 |
| 20260506195625 | 59 | 241 | 8.0 | 12.0 | 0.00 | 0.00 | 0.00 | 80 | 1008.7 |
| 20260506195118 | 59 | 232 | 8.0 | 12.0 | 0.00 | 0.00 | 0.00 | 82 | 1008.7 |
| 20260506194632 | 59 | 249 | 6.0 | 10.0 | 0.00 | 0.00 | 0.00 | 83 | 1008.7 |
| 20260506194139 | 59 | 282 | 3.0 | 9.0 | 0.00 | 0.00 | 0.00 | 83 | 1008.6 |
| 20260506193631 | 59 | 280 | 6.0 | 10.0 | 0.00 | 0.00 | 0.00 | 83 | 1008.5 |
| 20260506193120 | 59 | 241 | 7.0 | 14.0 | 0.00 | 0.00 | 0.00 | 83 | 1008.5 |
| 20260506192657 | 59 | 270 | 8.0 | 14.0 | 0.00 | 0.00 | 0.00 | 84 | 1008.4 |
| 20260506192143 | 59 | 242 | 5.0 | 10.0 | 0.00 | 0.00 | 0.00 | 85 | 1008.4 |
| 20260506191635 | 58 | 284 | 2.0 | 14.0 | 0.00 | 0.00 | 0.00 | 85 | 1008.3 |
| 20260506191123 | 58 | 227 | 7.0 | 14.0 | 0.00 | 0.00 | 0.00 | 84 | 1008.3 |
| 20260506190638 | 59 | 273 | 8.0 | 12.0 | 0.00 | 0.00 | 0.00 | 85 | 1008.3 |
| 20260506190124 | 59 | 247 | 3.0 | 7.0 | 0.00 | 0.00 | 0.00 | 85 | 1008.2 |
| 20260506185619 | 59 | 269 | 2.0 | 10.0 | 0.00 | 0.00 | 0.00 | 85 | 1008.1 |
| 20260506185132 | 59 | 220 | 5.0 | 10.0 | 0.00 | 0.00 | 0.00 | 84 | 1008.1 |
| 20260506184620 | 60 | 272 | 3.0 | 8.0 | 0.00 | 0.00 | 0.00 | 84 | 1007.9 |
| 20260506184137 | 60 | 273 | 5.0 | 8.0 | 0.00 | 0.00 | 0.00 | 83 | 1007.9 |
| 20260506183622 | 61 | 270 | 2.0 | 9.0 | 0.00 | 0.00 | 0.00 | 83 | 1007.9 |
| 20260506183153 | 61 | 266 | 3.0 | 10.0 | 0.00 | 0.00 | 0.00 | 83 | 1008.0 |
| 20260506182625 | 61 | 258 | 6.0 | 11.0 | 0.00 | 0.00 | 0.00 | 83 | 1007.9 |
| 20260506182118 | 62 | 244 | 7.0 | 12.0 | 0.00 | 0.00 | 0.00 | 82 | 1008.0 |
| 20260506181633 | 62 | 247 | 6.0 | 12.0 | 0.00 | 0.00 | 0.00 | 82 | 1007.9 |
| 20260506181128 | 62 | 305 | 8.0 | 11.0 | 0.00 | 0.00 | 0.00 | 82 | 1007.9 |
| 20260506180642 | 62 | 213 | 7.0 | 13.0 | 0.00 | 0.00 | 0.00 | 83 | 1007.8 |
| 20260506180135 | 61 | 253 | 8.0 | 14.0 | 0.00 | 0.00 | 0.00 | 83 | 1007.9 |
| 20260506175644 | 61 | 252 | 8.0 | 14.0 | 0.00 | 0.00 | 0.00 | 83 | 1007.9 |
| 20260506175138 | 61 | 273 | 9.0 | 13.0 | 0.00 | 0.00 | 0.00 | 83 | 1007.8 |
| 20260506174624 | 62 | 271 | 9.0 | 18.0 | 0.00 | 0.00 | 0.00 | 83 | 1007.7 |
| 20260506174120 | 62 | 276 | 10.0 | 18.0 | 0.00 | 0.00 | 0.00 | 84 | 1007.7 |
| 20260506173634 | 63 | 274 | 9.0 | 16.0 | 0.00 | 0.00 | 0.00 | 84 | 1007.6 |
| 20260506173121 | 63 | 273 | 9.0 | 16.0 | 0.00 | 0.00 | 0.00 | 85 | 1007.4 |
| 20260506172636 | 62 | 287 | 5.0 | 15.0 | 0.00 | 0.00 | 0.00 | 86 | 1007.4 |
| 20260506172121 | 62 | 237 | 9.0 | 15.0 | 0.00 | 0.00 | 0.00 | 86 | 1007.3 |
| 20260506171636 | 62 | 243 | 5.0 | 9.0 | 0.00 | 0.00 | 0.00 | 86 | 1007.1 |
| 20260506171125 | 62 | 203 | 1.0 | 5.0 | 0.00 | 0.00 | 0.00 | 86 | 1007.0 |
| 20260506170619 | 62 | 187 | 2.0 | 6.0 | 0.00 | 0.00 | 0.00 | 86 | 1007.0 |
| 20260506170134 | 61 | 186 | 3.0 | 7.0 | 0.00 | 0.00 | 0.00 | 86 | 1007.1 |
| 20260506165643 | 61 | 189 | 1.0 | 7.0 | 0.00 | 0.00 | 0.00 | 86 | 1007.0 |
| 20260506165135 | 61 | 183 | 3.0 | 10.0 | 0.00 | 0.00 | 0.00 | 86 | 1007.0 |
| 20260506164622 | 61 | 194 | 5.0 | 8.0 | 0.00 | 0.00 | 0.00 | 86 | 1006.9 |
| 20260506164155 | 60 | 201 | 4.0 | 5.0 | 0.00 | 0.00 | 0.00 | 86 | 1007.0 |
| 20260506163629 | 60 | 212 | 1.0 | 5.0 | 0.00 | 0.00 | 0.00 | 86 | 1007.0 |
| 20260506163124 | 60 | 168 | 1.0 | 5.0 | 0.00 | 0.00 | 0.00 | 86 | 1006.9 |
| 20260506162618 | 60 | 187 | 1.0 | 5.0 | 0.00 | 0.00 | 0.00 | 86 | 1006.9 |
| 20260506162133 | 60 | 188 | 2.0 | 5.0 | 0.00 | 0.00 | 0.00 | 86 | 1007.0 |
| 20260506161639 | 59 | 205 | 1.0 | 5.0 | 0.00 | 0.00 | 0.00 | 86 | 1007.0 |
| 20260506161153 | 59 | 189 | 2.0 | 5.0 | 0.00 | 0.00 | 0.00 | 86 | 1007.0 |
| 20260506160620 | 58 | 209 | 1.0 | 6.0 | 0.00 | 0.00 | 0.00 | 86 | 1007.0 |
| 20260506160134 | 58 | 232 | 2.0 | 6.0 | 0.00 | 0.00 | 0.00 | 86 | 1007.1 |
| 20260506155625 | 58 | 215 | 2.0 | 8.0 | 0.00 | 0.00 | 0.00 | 86 | 1007.1 |
| 20260506155119 | 58 | 194 | 4.0 | 8.0 | 0.00 | 0.00 | 0.00 | 86 | 1007.1 |
| 20260506154654 | 58 | 190 | 2.0 | 5.0 | 0.00 | 0.00 | 0.00 | 86 | 1007.0 |
| 20260506154121 | 58 | 205 | 1.0 | 6.0 | 0.00 | 0.00 | 0.00 | 86 | 1007.0 |
| 20260506153635 | 58 | 206 | 2.0 | 6.0 | 0.00 | 0.00 | 0.00 | 86 | 1007.0 |
| 20260506153122 | 58 | 206 | 1.0 | 6.0 | 0.00 | 0.00 | 0.00 | 86 | 1007.0 |
| 20260506152659 | 58 | 193 | 1.0 | 6.0 | 0.00 | 0.00 | 0.00 | 86 | 1006.9 |
| 20260506152125 | 58 | 203 | 0.0 | 5.0 | 0.00 | 0.00 | 0.00 | 86 | 1006.9 |
| 20260506151619 | 58 | 204 | 1.0 | 5.0 | 0.00 | 0.00 | 0.00 | 86 | 1006.7 |
| 20260506151133 | 58 | 214 | 2.0 | 7.0 | 0.00 | 0.00 | 0.00 | 86 | 1006.6 |
| 20260506150619 | 58 | 209 | 3.0 | 7.0 | 0.00 | 0.00 | 0.00 | 86 | 1006.5 |
| 20260506150114 | 58 | 207 | 3.0 | 7.0 | 0.00 | 0.00 | 0.00 | 86 | 1006.5 |
| 20260506145627 | 58 | 206 | 2.0 | 9.0 | 0.00 | 0.00 | 0.00 | 86 | 1006.4 |
| 20260506145140 | 58 | 246 | 3.0 | 9.0 | 0.00 | 0.00 | 0.00 | 86 | 1006.4 |
| 20260506144628 | 58 | 213 | 2.0 | 9.0 | 0.00 | 0.00 | 0.00 | 86 | 1006.3 |
| 20260506144123 | 58 | 210 | 6.0 | 9.0 | 0.00 | 0.00 | 0.00 | 86 | 1006.1 |
| 20260506143617 | 58 | 222 | 7.0 | 9.0 | 0.00 | 0.00 | 0.00 | 86 | 1006.1 |
| 20260506143130 | 58 | 222 | 6.0 | 9.0 | 0.00 | 0.00 | 0.00 | 86 | 1006.2 |
| 20260506142625 | 58 | 214 | 3.0 | 11.0 | 0.00 | 0.00 | 0.00 | 86 | 1006.1 |
| 20260506142119 | 58 | 203 | 4.0 | 9.0 | 0.00 | 0.00 | 0.00 | 86 | 1006.2 |
| 20260506141634 | 57 | 201 | 3.0 | 9.0 | 0.00 | 0.00 | 0.00 | 86 | 1006.0 |
| 20260506141145 | 57 | 214 | 2.0 | 10.0 | 0.00 | 0.00 | 0.00 | 86 | 1006.0 |
| 20260506140636 | 57 | 193 | 4.0 | 10.0 | 0.00 | 0.00 | 0.00 | 86 | 1006.1 |
| 20260506140121 | 57 | 205 | 5.0 | 10.0 | 0.00 | 0.00 | 0.00 | 86 | 1006.2 |
| 20260506135636 | 57 | 205 | 5.0 | 11.0 | 0.00 | 0.00 | 0.00 | 86 | 1006.3 |
| 20260506135122 | 57 | 216 | 4.0 | 8.0 | 0.00 | 0.00 | 0.00 | 86 | 1006.4 |
| 20260506134617 | 57 | 212 | 3.0 | 8.0 | 0.00 | 0.00 | 0.00 | 86 | 1006.3 |
| 20260506134133 | 57 | 197 | 4.0 | 8.0 | 0.00 | 0.00 | 0.00 | 86 | 1006.5 |
| 20260506133620 | 57 | 203 | 3.0 | 6.0 | 0.00 | 0.00 | 0.00 | 86 | 1006.7 |
| 20260506133134 | 57 | 197 | 3.0 | 5.0 | 0.00 | 0.00 | 0.00 | 86 | 1006.7 |
| 20260506132620 | 57 | 187 | 2.0 | 5.0 | 0.00 | 0.00 | 0.00 | 86 | 1006.6 |
| 20260506132136 | 57 | 198 | 2.0 | 4.0 | 0.00 | 0.00 | 0.00 | 86 | 1006.7 |
| 20260506131642 | 56 | 205 | 1.0 | 4.0 | 0.00 | 0.00 | 0.00 | 86 | 1006.8 |
| 20260506131155 | 56 | 199 | 0.0 | 2.0 | 0.00 | 0.00 | 0.00 | 86 | 1006.8 |
| 20260506130621 | 56 | 199 | 1.0 | 4.0 | 0.00 | 0.00 | 0.00 | 86 | 1006.7 |
| 20260506130116 | 56 | 199 | 1.0 | 4.0 | 0.00 | 0.00 | 0.00 | 86 | 1006.7 |
| 20260506125629 | 56 | 199 | 0.0 | 2.0 | 0.00 | 0.00 | 0.00 | 86 | 1006.8 |
| 20260506125135 | 56 | 201 | 0.0 | 4.0 | 0.00 | 0.00 | 0.00 | 86 | 1006.7 |
| 20260506124628 | 56 | 203 | 2.0 | 4.0 | 0.00 | 0.00 | 0.00 | 86 | 1006.6 |
| 20260506124137 | 56 | 185 | 1.0 | 2.0 | 0.00 | 0.00 | 0.00 | 86 | 1006.7 |
| 20260506123643 | 55 | 185 | 0.0 | 0.0 | 0.00 | 0.00 | 0.00 | 86 | 1006.7 |
| 20260506123115 | 55 | 186 | 0.0 | 1.0 | 0.00 | 0.00 | 0.00 | 86 | 1006.7 |
| 20260506122632 | 55 | 185 | 0.0 | 4.0 | 0.00 | 0.00 | 0.00 | 86 | 1006.7 |
| 20260506122120 | 55 | 185 | 0.0 | 4.0 | 0.00 | 0.00 | 0.00 | 86 | 1006.7 |
| 20260506121634 | 55 | 188 | 0.0 | 3.0 | 0.00 | 0.00 | 0.00 | 86 | 1006.6 |
| 20260506121142 | 55 | 190 | 1.0 | 3.0 | 0.00 | 0.00 | 0.00 | 86 | 1006.9 |
| 20260506120635 | 55 | 192 | 0.0 | 3.0 | 0.00 | 0.00 | 0.00 | 86 | 1006.9 |
| 20260506120142 | 55 | 191 | 0.0 | 3.0 | 0.00 | 0.00 | 0.00 | 86 | 1006.7 |
| 20260506115637 | 55 | 191 | 0.0 | 1.0 | 0.00 | 0.00 | 0.00 | 86 | 1006.4 |
| 20260506115124 | 55 | 191 | 0.0 | 1.0 | 0.00 | 0.00 | 0.00 | 86 | 1006.5 |
| 20260506114618 | 55 | 191 | 0.0 | 2.0 | 0.00 | 0.00 | 0.00 | 86 | 1006.7 |
| 20260506114154 | 55 | 191 | 0.0 | 2.0 | 0.00 | 0.00 | 0.00 | 86 | 1006.7 |
| 20260506113636 | 55 | 191 | 0.0 | 2.0 | 0.00 | 0.00 | 0.00 | 86 | 1006.8 |
| 20260506113123 | 55 | 193 | 0.0 | 0.0 | 0.00 | 0.00 | 0.00 | 86 | 1006.9 |
| 20260506112619 | 55 | 193 | 0.0 | 0.0 | 0.00 | 0.00 | 0.00 | 86 | 1007.0 |
| 20260506112132 | 55 | 193 | 0.0 | 0.0 | 0.00 | 0.00 | 0.00 | 86 | 1006.9 |
| 20260506111640 | 55 | 192 | 0.0 | 1.0 | 0.00 | 0.00 | 0.00 | 87 | 1006.9 |
| 20260506111134 | 55 | 191 | 0.0 | 1.0 | 0.00 | 0.00 | 0.00 | 87 | 1006.9 |
| 20260506110640 | 55 | 195 | 0.0 | 1.0 | 0.00 | 0.00 | 0.00 | 87 | 1007.0 |
| 20260506110135 | 55 | 195 | 0.0 | 2.0 | 0.00 | 0.00 | 0.00 | 87 | 1007.0 |
| 20260506105622 | 55 | 198 | 0.0 | 3.0 | 0.00 | 0.00 | 0.00 | 87 | 1006.9 |
| 20260506105135 | 55 | 199 | 1.0 | 3.0 | 0.00 | 0.00 | 0.00 | 87 | 1007.0 |
| 20260506104623 | 56 | 199 | 0.0 | 1.0 | 0.00 | 0.00 | 0.00 | 87 | 1007.0 |
| 20260506104120 | 56 | 200 | 0.0 | 0.0 | 0.00 | 0.00 | 0.00 | 87 | 1007.0 |
| 20260506103635 | 56 | 200 | 0.0 | 0.0 | 0.00 | 0.00 | 0.00 | 86 | 1006.9 |
| 20260506103121 | 56 | 199 | 0.0 | 0.0 | 0.00 | 0.00 | 0.00 | 86 | 1006.8 |
| 20260506102637 | 56 | 207 | 0.0 | 0.0 | 0.00 | 0.00 | 0.00 | 86 | 1006.7 |
| 20260506102144 | 56 | 207 | 0.0 | 0.0 | 0.00 | 0.00 | 0.00 | 86 | 1006.8 |
| 20260506101618 | 56 | 207 | 0.0 | 0.0 | 0.00 | 0.00 | 0.00 | 86 | 1006.7 |
| 20260506101133 | 56 | 207 | 0.0 | 0.0 | 0.00 | 0.00 | 0.00 | 86 | 1006.7 |
| 20260506100621 | 56 | 209 | 0.0 | 0.0 | 0.00 | 0.00 | 0.00 | 86 | 1006.7 |
| 20260506100116 | 56 | 209 | 0.0 | 0.0 | 0.00 | 0.00 | 0.00 | 86 | 1006.5 |
| 20260506095633 | 56 | 220 | 0.0 | 0.0 | 0.00 | 0.00 | 0.00 | 86 | 1006.6 |
| 20260506095119 | 56 | 220 | 0.0 | 0.0 | 0.00 | 0.00 | 0.00 | 86 | 1006.5 |
| 20260506094632 | 56 | 218 | 0.0 | 0.0 | 0.00 | 0.00 | 0.00 | 85 | 1006.4 |
| 20260506094120 | 57 | 218 | 0.0 | 0.0 | 0.00 | 0.00 | 0.00 | 85 | 1006.5 |
| 20260506093616 | 57 | 218 | 0.0 | 0.0 | 0.00 | 0.00 | 0.00 | 85 | 1006.5 |
| 20260506093146 | 57 | 218 | 0.0 | 0.0 | 0.00 | 0.00 | 0.00 | 85 | 1006.5 |
| 20260506092619 | 57 | 218 | 0.0 | 2.0 | 0.00 | 0.00 | 0.00 | 84 | 1006.6 |
| 20260506092131 | 57 | 218 | 0.0 | 2.0 | 0.00 | 0.00 | 0.00 | 84 | 1006.6 |
| 20260506091624 | 57 | 220 | 0.0 | 3.0 | 0.00 | 0.00 | 0.00 | 84 | 1006.6 |
| 20260506091120 | 57 | 197 | 1.0 | 3.0 | 0.00 | 0.00 | 0.00 | 84 | 1006.6 |
| 20260506090652 | 57 | 178 | 0.0 | 0.0 | 0.00 | 0.00 | 0.00 | 84 | 1006.5 |
| 20260506090120 | 57 | 178 | 0.0 | 0.0 | 0.00 | 0.00 | 0.00 | 84 | 1006.7 |
| 20260506085636 | 57 | 178 | 0.0 | 0.0 | 0.00 | 0.00 | 0.00 | 84 | 1006.7 |
| 20260506085122 | 57 | 177 | 0.0 | 0.0 | 0.00 | 0.00 | 0.00 | 84 | 1006.6 |
| 20260506084616 | 57 | 181 | 0.0 | 0.0 | 0.00 | 0.00 | 0.00 | 83 | 1006.7 |
| 20260506084133 | 57 | 180 | 0.0 | 0.0 | 0.00 | 0.00 | 0.00 | 83 | 1006.5 |
| 20260506083620 | 57 | 139 | 0.0 | 0.0 | 0.00 | 0.00 | 0.00 | 83 | 1006.5 |
| 20260506083116 | 57 | 139 | 0.0 | 0.0 | 0.00 | 0.00 | 0.00 | 83 | 1006.4 |
| 20260506082653 | 57 | 139 | 0.0 | 0.0 | 0.00 | 0.00 | 0.00 | 83 | 1006.5 |
| 20260506082119 | 58 | 138 | 0.0 | 0.0 | 0.00 | 0.00 | 0.00 | 82 | 1006.5 |
| 20260506081633 | 58 | 138 | 0.0 | 0.0 | 0.00 | 0.00 | 0.00 | 82 | 1006.5 |
| 20260506081121 | 58 | 138 | 0.0 | 0.0 | 0.00 | 0.00 | 0.00 | 82 | 1006.6 |
| 20260506080635 | 58 | 138 | 0.0 | 0.0 | 0.00 | 0.00 | 0.00 | 82 | 1006.7 |
| 20260506080143 | 58 | 138 | 0.0 | 0.0 | 0.00 | 0.00 | 0.00 | 81 | 1006.6 |
| 20260506073131 | 58 | 138 | 0.0 | 0.0 | 0.00 | 0.00 | 0.00 | 82 | 1007.0 |
| 20260506072628 | 57 | 141 | 0.0 | 0.0 | 0.00 | 0.00 | 0.00 | 83 | 1007.1 |
| 20260506072123 | 57 | 141 | 0.0 | 0.0 | 0.00 | 0.00 | 0.00 | 83 | 1007.2 |
| 20260506071617 | 57 | 141 | 0.0 | 1.0 | 0.00 | 0.00 | 0.00 | 83 | 1007.3 |
| 20260506071132 | 57 | 141 | 0.0 | 3.0 | 0.00 | 0.00 | 0.00 | 83 | 1007.3 |
| 20260506070618 | 58 | 139 | 2.0 | 3.0 | 0.00 | 0.00 | 0.00 | 83 | 1007.3 |
| 20260506070133 | 58 | 216 | 0.0 | 0.0 | 0.00 | 0.00 | 0.00 | 83 | 1007.4 |
| 20260506062143 | 58 | 216 | 0.0 | 0.0 | 0.00 | 0.00 | 0.00 | 81 | 1007.4 |
| 20260506061618 | 58 | 216 | 0.0 | 0.0 | 0.00 | 0.00 | 0.00 | 81 | 1007.4 |
| 20260506061135 | 58 | 216 | 0.0 | 0.0 | 0.00 | 0.00 | 0.00 | 81 | 1007.5 |
| 20260506060621 | 59 | 216 | 0.0 | 0.0 | 0.00 | 0.00 | 0.00 | 80 | 1007.5 |
| 20260506060137 | 59 | 218 | 0.0 | 0.0 | 0.00 | 0.00 | 0.00 | 79 | 1007.6 |
| 20260506051123 | 60 | 218 | 1.0 | 3.0 | 0.00 | 0.00 | 0.00 | 74 | 1008.3 |
| 20260506050637 | 59 | 221 | 1.0 | 3.0 | 0.00 | 0.00 | 0.00 | 73 | 1008.2 |
| 20260506050124 | 59 | 216 | 1.0 | 3.0 | 0.00 | 0.00 | 0.00 | 75 | 1008.2 |
| 20260506044619 | 60 | 215 | 0.0 | 0.0 | 0.00 | 0.00 | 0.00 | 73 | 1008.4 |
| 20260506044133 | 60 | 216 | 0.0 | 0.0 | 0.00 | 0.00 | 0.00 | 72 | 1008.3 |
| 20260506043620 | 60 | 215 | 0.0 | 0.0 | 0.00 | 0.00 | 0.00 | 74 | 1008.2 |
| 20260506043154 | 60 | 214 | 0.0 | 0.0 | 0.00 | 0.00 | 0.00 | 72 | 1008.2 |
| 20260506042623 | 60 | 214 | 0.0 | 0.0 | 0.00 | 0.00 | 0.00 | 71 | 1008.2 |
| 20260506042117 | 60 | 215 | 0.0 | 0.0 | 0.00 | 0.00 | 0.00 | 72 | 1008.2 |
| 20260506041632 | 60 | 266 | 0.0 | 4.0 | 0.00 | 0.00 | 0.00 | 70 | 1008.2 |
| 20260506041143 | 60 | 232 | 1.0 | 3.0 | 0.00 | 0.00 | 0.00 | 72 | 1008.3 |
| 20260506040615 | 60 | 211 | 0.0 | 3.0 | 0.00 | 0.00 | 0.00 | 71 | 1008.2 |
| 20260506040130 | 60 | 211 | 0.0 | 3.0 | 0.00 | 0.00 | 0.00 | 70 | 1008.3 |
| 20260506035619 | 60 | 216 | 0.0 | 2.0 | 0.00 | 0.00 | 0.00 | 71 | 1008.3 |
| 20260506035149 | 60 | 215 | 0.0 | 0.0 | 0.00 | 0.00 | 0.00 | 71 | 1008.4 |
| 20260506034623 | 61 | 215 | 0.0 | 0.0 | 0.00 | 0.00 | 0.00 | 71 | 1008.5 |
| 20260506034138 | 61 | 215 | 0.0 | 1.0 | 0.00 | 0.00 | 0.00 | 69 | 1008.5 |
| 20260506033623 | 61 | 215 | 0.0 | 1.0 | 0.00 | 0.00 | 0.00 | 68 | 1008.5 |
| 20260506033118 | 61 | 216 | 0.0 | 3.0 | 0.00 | 0.00 | 0.00 | 68 | 1008.5 |
| 20260506032632 | 61 | 216 | 0.0 | 3.0 | 0.00 | 0.00 | 0.00 | 68 | 1008.4 |
| 20260506032120 | 61 | 218 | 0.0 | 0.0 | 0.00 | 0.00 | 0.00 | 68 | 1008.3 |
| 20260506031654 | 61 | 218 | 0.0 | 4.0 | 0.00 | 0.00 | 0.00 | 69 | 1008.2 |
| 20260506031119 | 61 | 219 | 0.0 | 7.0 | 0.00 | 0.00 | 0.00 | 65 | 1008.2 |
| 20260506030634 | 60 | 237 | 3.0 | 7.0 | 0.00 | 0.00 | 0.00 | 67 | 1008.2 |
| 20260506030120 | 61 | 176 | 0.0 | 1.0 | 0.00 | 0.00 | 0.00 | 68 | 1008.1 |
| 20260506025656 | 61 | 176 | 0.0 | 2.0 | 0.00 | 0.00 | 0.00 | 66 | 1008.1 |
| 20260506025121 | 62 | 226 | 0.0 | 2.0 | 0.00 | 0.00 | 0.00 | 64 | 1008.1 |
| 20260506024616 | 62 | 210 | 0.0 | 0.0 | 0.00 | 0.00 | 0.00 | 63 | 1008.2 |
| 20260506024133 | 63 | 210 | 0.0 | 0.0 | 0.00 | 0.00 | 0.00 | 61 | 1008.2 |
| 20260506023619 | 63 | 224 | 0.0 | 3.0 | 0.00 | 0.00 | 0.00 | 61 | 1008.3 |
| 20260506023135 | 64 | 229 | 1.0 | 3.0 | 0.00 | 0.00 | 0.00 | 58 | 1008.2 |
| 20260506022621 | 64 | 205 | 0.0 | 4.0 | 0.00 | 0.00 | 0.00 | 59 | 1008.3 |
| 20260506022134 | 64 | 205 | 1.0 | 4.0 | 0.00 | 0.00 | 0.00 | 56 | 1008.2 |
| 20260506021622 | 64 | 191 | 0.0 | 1.0 | 0.00 | 0.00 | 0.00 | 57 | 1008.3 |
| 20260506021136 | 64 | 191 | 0.0 | 6.0 | 0.00 | 0.00 | 0.00 | 57 | 1008.4 |
| 20260506020623 | 64 | 174 | 2.0 | 6.0 | 0.00 | 0.00 | 0.00 | 55 | 1008.3 |
| 20260506020154 | 65 | 176 | 1.0 | 2.0 | 0.00 | 0.00 | 0.00 | 56 | 1008.2 |
| 20260506015642 | 66 | 197 | 0.0 | 2.0 | 0.00 | 0.00 | 0.00 | 53 | 1008.2 |
| 20260506015134 | 66 | 203 | 0.0 | 5.0 | 0.00 | 0.00 | 0.00 | 51 | 1008.2 |
| 20260506014620 | 66 | 176 | 0.0 | 8.0 | 0.00 | 0.00 | 0.00 | 51 | 1008.2 |
| 20260506014136 | 67 | 188 | 4.0 | 8.0 | 0.00 | 0.00 | 0.00 | 51 | 1008.2 |
| 20260506013623 | 67 | 220 | 1.0 | 4.0 | 0.00 | 0.00 | 0.00 | 50 | 1008.2 |
| 20260506013118 | 66 | 206 | 2.0 | 4.0 | 0.00 | 0.00 | 0.00 | 50 | 1008.1 |
| 20260506012655 | 67 | 173 | 1.0 | 6.0 | 0.00 | 0.00 | 0.00 | 51 | 1008.2 |
| 20260506012120 | 67 | 162 | 3.0 | 6.0 | 0.00 | 0.00 | 0.00 | 50 | 1008.1 |
| 20260506011634 | 68 | 176 | 0.0 | 7.0 | 0.00 | 0.00 | 0.00 | 49 | 1008.2 |
| 20260506011122 | 68 | 187 | 0.0 | 4.0 | 0.00 | 0.00 | 0.00 | 48 | 1008.0 |
| 20260506010634 | 69 | 193 | 1.0 | 5.0 | 0.00 | 0.00 | 0.00 | 47 | 1008.1 |
| 20260506010121 | 69 | 199 | 1.0 | 9.0 | 0.00 | 0.00 | 0.00 | 46 | 1008.0 |
| 20260506005637 | 69 | 177 | 5.0 | 9.0 | 0.00 | 0.00 | 0.00 | 45 | 1007.9 |
| 20260506005125 | 69 | 193 | 3.0 | 13.0 | 0.00 | 0.00 | 0.00 | 45 | 1007.9 |
| 20260506004620 | 70 | 193 | 3.0 | 9.0 | 0.00 | 0.00 | 0.00 | 45 | 1007.9 |
| 20260506004156 | 70 | 173 | 5.0 | 9.0 | 0.00 | 0.00 | 0.00 | 45 | 1008.0 |
| 20260506003620 | 70 | 199 | 3.0 | 8.0 | 0.00 | 0.00 | 0.00 | 44 | 1007.9 |
| 20260506003134 | 70 | 202 | 1.0 | 5.0 | 0.00 | 0.00 | 0.00 | 44 | 1007.9 |
| 20260506002623 | 70 | 182 | 1.0 | 7.0 | 0.00 | 0.00 | 0.00 | 44 | 1007.8 |
| 20260506002117 | 71 | 187 | 2.0 | 8.0 | 0.00 | 0.00 | 0.00 | 43 | 1007.7 |
| 20260506001627 | 71 | 172 | 5.0 | 8.0 | 0.00 | 0.00 | 0.00 | 43 | 1007.7 |
| 20260506001144 | 71 | 173 | 4.0 | 9.0 | 0.00 | 0.00 | 0.00 | 43 | 1007.7 |
| 20260506000617 | 71 | 200 | 3.0 | 11.0 | 0.00 | 0.01 | 0.00 | 41 | 1007.6 |
| 20260506000130 | 71 | 193 | 0.0 | 8.0 | 0.00 | 0.01 | 0.00 | 42 | 1007.6 |
| 20260505235623 | 72 | 241 | 3.0 | 9.0 | 0.00 | 0.01 | 0.00 | 42 | 1007.5 |
| 20260505235158 | 72 | 207 | 4.0 | 11.0 | 0.00 | 0.01 | 0.00 | 42 | 1007.6 |
| 20260505234625 | 72 | 204 | 6.0 | 14.0 | 0.00 | 0.01 | 0.00 | 41 | 1007.6 |
| 20260505234120 | 72 | 166 | 9.0 | 14.0 | 0.00 | 0.01 | 0.00 | 41 | 1007.6 |
| 20260505233654 | 72 | 207 | 8.0 | 14.0 | 0.00 | 0.01 | 0.00 | 42 | 1007.5 |
| 20260505233121 | 73 | 193 | 3.0 | 11.0 | 0.00 | 0.01 | 0.00 | 41 | 1007.5 |
| 20260505232638 | 73 | 194 | 1.0 | 23.0 | 0.00 | 0.01 | 0.00 | 40 | 1007.5 |
| 20260505232124 | 73 | 176 | 13.0 | 24.0 | 0.00 | 0.01 | 0.00 | 40 | 1007.3 |
| 20260505231637 | 73 | 212 | 3.0 | 14.0 | 0.00 | 0.01 | 0.00 | 41 | 1007.4 |
| 20260505231132 | 73 | 207 | 6.0 | 19.0 | 0.00 | 0.01 | 0.00 | 40 | 1007.3 |
| 20260505230619 | 73 | 193 | 6.0 | 19.0 | 0.00 | 0.01 | 0.00 | 41 | 1007.3 |
| 20260505230134 | 74 | 249 | 10.0 | 18.0 | 0.00 | 0.01 | 0.00 | 41 | 1007.3 |
| 20260505225620 | 74 | 204 | 8.0 | 15.0 | 0.00 | 0.01 | 0.00 | 42 | 1007.5 |
| 20260505225132 | 74 | 204 | 6.0 | 19.0 | 0.00 | 0.01 | 0.00 | 42 | 1007.5 |
| 20260505224619 | 74 | 195 | 11.0 | 19.0 | 0.00 | 0.01 | 0.00 | 41 | 1007.5 |
| 20260505224135 | 74 | 178 | 11.0 | 25.0 | 0.00 | 0.01 | 0.00 | 40 | 1007.6 |
| 20260505223622 | 74 | 234 | 17.0 | 25.0 | 0.00 | 0.01 | 0.00 | 40 | 1007.7 |
| 20260505223122 | 75 | 236 | 12.0 | 25.0 | 0.00 | 0.01 | 0.00 | 41 | 1007.7 |
| 20260505222618 | 75 | 226 | 13.0 | 25.0 | 0.00 | 0.01 | 0.00 | 40 | 1007.7 |
| 20260505222131 | 76 | 171 | 7.0 | 25.0 | 0.00 | 0.01 | 0.00 | 41 | 1007.6 |
| 20260505221625 | 76 | 210 | 14.0 | 25.0 | 0.00 | 0.01 | 0.00 | 39 | 1007.5 |
| 20260505221121 | 76 | 203 | 4.0 | 16.0 | 0.00 | 0.01 | 0.00 | 40 | 1007.5 |
| 20260505220615 | 76 | 192 | 8.0 | 21.0 | 0.00 | 0.01 | 0.00 | 39 | 1007.4 |
| 20260505220131 | 76 | 210 | 12.0 | 21.0 | 0.00 | 0.01 | 0.00 | 39 | 1007.4 |
| 20260505215639 | 77 | 198 | 5.0 | 15.0 | 0.00 | 0.01 | 0.00 | 40 | 1007.3 |
| 20260505215133 | 77 | 183 | 8.0 | 15.0 | 0.00 | 0.01 | 0.00 | 39 | 1007.4 |
| 20260505214623 | 77 | 216 | 7.0 | 16.0 | 0.00 | 0.01 | 0.00 | 39 | 1007.3 |
| 20260505214119 | 77 | 224 | 7.0 | 21.0 | 0.00 | 0.01 | 0.00 | 39 | 1007.1 |
| 20260505213632 | 77 | 188 | 10.0 | 21.0 | 0.00 | 0.01 | 0.00 | 39 | 1007.2 |
| 20260505213139 | 77 | 245 | 15.0 | 22.0 | 0.00 | 0.01 | 0.00 | 38 | 1007.1 |
| 20260505212632 | 78 | 191 | 5.0 | 17.0 | 0.00 | 0.01 | 0.00 | 40 | 1007.0 |
| 20260505212120 | 78 | 234 | 6.0 | 21.0 | 0.00 | 0.01 | 0.00 | 39 | 1007.0 |
| 20260505211636 | 78 | 227 | 11.0 | 20.0 | 0.00 | 0.01 | 0.00 | 39 | 1007.0 |
| 20260505211124 | 78 | 228 | 12.0 | 22.0 | 0.00 | 0.01 | 0.00 | 39 | 1007.0 |
| 20260505210618 | 78 | 225 | 16.0 | 25.0 | 0.00 | 0.01 | 0.00 | 38 | 1007.0 |
| 20260505210133 | 78 | 224 | 14.0 | 25.0 | 0.00 | 0.01 | 0.00 | 39 | 1007.0 |
| 20260505205619 | 79 | 216 | 11.0 | 25.0 | 0.00 | 0.01 | 0.00 | 38 | 1006.9 |
| 20260505205154 | 79 | 226 | 13.0 | 26.0 | 0.00 | 0.01 | 0.00 | 38 | 1007.1 |